STARLINK-32314, 61709

Orbit data source: Space-Track

STARLINK-32314, 61709 is a payload satellite owned by SpaceX/Seattle (US) in LEO that was launched on Wed, 30 Oct 2024 UTC via an FALCON 9 launch vehicle from the Air Force Eastern Test Range (AFETR). Payload-class satellites include a variety of spacecraft equipped with specific instruments for various scientific and technological missions. These include communications satellites like Starlink; space stations such as the ISS; scientific satellites like the Hubble; Earth observation satellites from companies like Planet Labs, Umbra, and HawkEye 360; GPS; miniature CubeSats for education and research; and military/defense satellites.

Loading next visibility...
Identifier
61709, 2024-196C
Orbit
LEO
Last TLE update
11 hours ago
Origin
Manufacturer
SpaceX/Seattle
Mission
Operational Commercial Communications
Bus & Motor
STARLINK V2M, Unknown motor
Mass
730 kg wet, ~700 kg dry
Launch date (UTC)
2024-10-30 (9 months ago)
Launch vehicle
FALCON 9
Launch site
Air Force Eastern Test Range (AFETR)
Object type
Payload
Rocket body
Debris
Shape & HBR
Box + 2 Pan, 14.5 m
Radar Cross Section
36.964 m², Large (>1 m²)

Expand to show TLE details & history

TLE from 11 hours ago
0 STARLINK-32314
1 61709U 24196C   25200.15356890  .00000340  00000-0  23604-4 0  9997
2 61709  53.1604 105.9134 0001238  96.4607 263.6535 15.30194433 41191
Epoch: 2025-07-19T03:41Z
TLE epoch observation values (Epoch: 2025-07-19T03:41:08.352Z)
Latitude
-0.00003°
Longitude
113.43382°
Altitude
476.225 km
Speed
7.629 km/s
True Right ascension
07h 03m 39s
True Declination
0° 00' 00"
Sunlit
Object was in daylight at epoch
Visualization orbit readout
Latitude
-40.90958°
Longitude
71.14565°
Altitude
489.526 km
Speed
7.62 km/s
Apparent Right ascension
08h 53m 36s
Apparent Declination
-81° 07' 48"
Sunlit
Object is in daylight
Visualization observer readout
Local Sidereal Time
03:15:17
Azimuth
168.685° S
Elevation
-38.522°
Doppler factor
1
Orbital elements
Apogee altitude
476.337 km
Perigee altitude
474.64 km
Semi-major axis
6,853.625 km
Eccentricity
0.00012
Inclination
53.1604°
RAAN
105.9134°
Arg. of periapsis
96.4607°
True anomaly
263.6394°
Mean anomaly
263.6535°
Eccentric anomaly
263.64645°
Mean motion
3.82527 °/min
Orbital period
94.11 mins
BSTAR
0.000023604
Loading maneuver chart data...
Loading SW <> Apogee altitude chart data...
Loading historical data...
Loading historical data...
Loading historical data...
Loading historical data...
Loading historical data...
Loading historical data...
Loading historical data...
|